sat.trackr.live / text

‹ back to catalog

ONEWEB-0219

NORAD 48223 · 2021-031P

PAYLOAD ACTIVE UNKNOWN

§ Identity

Operator
Country
UK
Launch date
2021-04-25
Launch site
VOSTO
Launch vehicle
Mass (kg)
RCS (m²)

Purposes: comms

External: N2YO · Heavens-Above · Gunter

§ Orbital elements

Epoch: 2026-09-19T18:17:03.077952Z

Period
109.55 min
Inclination
87.8901°
Eccentricity
0.0001712
Mean motion
13.14502919 rev/d
Perigee alt
1,204.5 km
Apogee alt
1,207.1 km
Semi-major
7,583.9 km
B*
-5.5816e-5
RAAN
270.8394°
Arg perigee
97.2263°
Mean anomaly
262.9062°
Rev number
26,080

§ Raw data

ONEWEB-02191 48223U 21031P   26262.76184118 -.00000008  00000+0 -55816-4 0  99982 48223  87.8901 270.8394 0001712  97.2263 262.9062 13.14502919260805

JSON: /api/v1/satellites/48223 · /tle

For live sub-satellite position, see the globe view (requires WebGL).

§ Visibility from observer

Set your observer location to see the next 7 days of passes ≥ 10°. The values pass through the URL so the page stays shareable.

No JS? Fill the form by hand. The geolocation button needs JavaScript.